TimeCDT,TemperatureF,Dew PointF,Humidity,Sea Level PressureIn,VisibilityMPH,Wind Direction,Wind SpeedMPH,Gust SpeedMPH,PrecipitationIn,Events,Conditions,WindDirDegrees,DateUTC
12:15 AM,51.6,43.2,73,30.13,10.0,SE,5.8,-,N/A,,Clear,140,2013-10-15 05:15:00
12:35 AM,52.3,43.2,71,30.12,10.0,SE,6.9,-,N/A,,Clear,140,2013-10-15 05:35:00
12:55 AM,52.9,42.8,69,30.11,10.0,SE,8.1,-,N/A,,Clear,140,2013-10-15 05:55:00
1:15 AM,52.9,42.8,69,30.12,10.0,SE,6.9,-,N/A,,Clear,140,2013-10-15 06:15:00
1:35 AM,53.1,43.0,69,30.10,10.0,SE,8.1,-,N/A,,Clear,130,2013-10-15 06:35:00
1:55 AM,53.6,43.0,67,30.09,10.0,SE,8.1,-,N/A,,Clear,130,2013-10-15 06:55:00
2:15 AM,52.9,43.2,70,30.09,10.0,SE,9.2,-,N/A,,Clear,130,2013-10-15 07:15:00
2:35 AM,52.9,43.3,70,30.08,10.0,SE,10.4,-,N/A,,Clear,140,2013-10-15 07:35:00
2:55 AM,52.7,43.7,71,30.07,10.0,SE,11.5,17.3,N/A,,Clear,140,2013-10-15 07:55:00
3:15 AM,52.7,44.2,73,30.06,10.0,SE,12.7,17.3,N/A,,Clear,140,2013-10-15 08:15:00
3:35 AM,53.6,44.6,72,30.05,10.0,SE,11.5,-,N/A,,Clear,140,2013-10-15 08:35:00
3:55 AM,53.1,44.6,73,30.05,10.0,SSE,9.2,-,N/A,,Clear,150,2013-10-15 08:55:00
4:15 AM,52.7,44.6,74,30.06,10.0,SSE,6.9,-,N/A,,Clear,150,2013-10-15 09:15:00
4:35 AM,51.8,44.6,76,30.05,10.0,SSE,8.1,-,N/A,,Clear,150,2013-10-15 09:35:00
4:55 AM,51.8,45.0,77,30.04,10.0,SSE,8.1,-,N/A,,Clear,150,2013-10-15 09:55:00
5:15 AM,51.4,45.0,79,30.04,10.0,SSE,6.9,-,N/A,,Clear,150,2013-10-15 10:15:00
5:35 AM,51.4,45.0,79,30.03,10.0,SSE,8.1,-,N/A,,Clear,150,2013-10-15 10:35:00
5:55 AM,51.3,45.0,79,30.02,10.0,SE,6.9,-,N/A,,Clear,140,2013-10-15 10:55:00
6:15 AM,51.4,45.0,79,30.01,10.0,SE,6.9,-,N/A,,Clear,140,2013-10-15 11:15:00
6:35 AM,51.6,45.0,78,30.01,10.0,SSE,6.9,-,N/A,,Clear,150,2013-10-15 11:35:00
6:55 AM,52.0,44.8,76,30.00,10.0,SSE,8.1,-,N/A,,Clear,160,2013-10-15 11:55:00
7:15 AM,52.2,44.8,76,29.99,10.0,SSE,6.9,-,N/A,,Scattered Clouds,150,2013-10-15 12:15:00
7:35 AM,52.5,45.1,76,29.99,10.0,South,8.1,-,N/A,,Overcast,170,2013-10-15 12:35:00
7:55 AM,53.1,45.5,75,29.98,10.0,SSE,8.1,-,N/A,,Overcast,160,2013-10-15 12:55:00
8:15 AM,53.8,45.3,73,29.97,10.0,SSE,10.4,-,N/A,,Overcast,150,2013-10-15 13:15:00
8:35 AM,54.5,45.9,73,29.97,10.0,SSE,9.2,-,N/A,,Overcast,160,2013-10-15 13:35:00
8:55 AM,55.4,46.2,71,29.96,10.0,SSE,11.5,-,N/A,,Overcast,160,2013-10-15 13:55:00
9:15 AM,55.4,46.8,73,29.95,10.0,SSE,12.7,-,N/A,,Overcast,160,2013-10-15 14:15:00
9:35 AM,56.8,47.8,72,29.94,10.0,SSE,11.5,-,N/A,,Overcast,160,2013-10-15 14:35:00
9:55 AM,56.8,48.2,73,29.93,10.0,SSE,11.5,-,N/A,,Overcast,160,2013-10-15 14:55:00
10:15 AM,59.2,49.6,71,29.92,10.0,South,15.0,19.6,N/A,,Overcast,170,2013-10-15 15:15:00
10:35 AM,59.4,50.9,74,29.91,10.0,South,13.8,-,N/A,,Light Drizzle,170,2013-10-15 15:35:00
10:55 AM,60.8,51.6,72,29.90,10.0,South,13.8,-,N/A,,Overcast,170,2013-10-15 15:55:00
11:15 AM,61.7,52.5,72,29.90,10.0,South,12.7,-,N/A,,Overcast,180,2013-10-15 16:15:00
11:35 AM,61.7,53.1,73,29.90,10.0,South,9.2,16.1,N/A,,Overcast,190,2013-10-15 16:35:00
11:55 AM,62.6,53.8,73,29.89,10.0,South,17.3,23.0,N/A,,Overcast,190,2013-10-15 16:55:00
12:15 PM,62.6,54.9,76,29.89,7.0,SSW,10.4,18.4,N/A,,Light Drizzle,200,2013-10-15 17:15:00
12:35 PM,60.8,56.8,87,29.87,5.0,South,9.2,17.3,N/A,Rain,Light Rain,190,2013-10-15 17:35:00
12:55 PM,60.3,58.1,93,29.86,3.0,South,12.7,-,N/A,Rain,Rain,190,2013-10-15 17:55:00
1:15 PM,59.9,58.5,95,29.84,2.0,South,10.4,-,N/A,Rain,Light Rain,180,2013-10-15 18:15:00
1:35 PM,59.9,58.5,95,29.84,3.0,SSW,17.3,-,N/A,Rain,Rain,200,2013-10-15 18:35:00
1:55 PM,60.1,59.0,96,29.84,3.0,SSW,13.8,-,N/A,Rain,Light Rain,200,2013-10-15 18:55:00
2:15 PM,60.3,59.2,96,29.83,1.8,SSW,11.5,-,N/A,,Drizzle,210,2013-10-15 19:15:00
2:35 PM,60.6,59.7,97,29.82,1.8,SSW,11.5,16.1,N/A,,Drizzle,200,2013-10-15 19:35:00
2:55 PM,61.2,60.1,96,29.82,2.5,SSW,13.8,18.4,N/A,,Overcast,210,2013-10-15 19:55:00
3:15 PM,61.7,60.1,94,29.81,3.0,SSW,12.7,17.3,N/A,,Overcast,210,2013-10-15 20:15:00
3:35 PM,63.7,61.9,94,29.80,4.0,SSW,12.7,-,N/A,,Overcast,210,2013-10-15 20:35:00
3:55 PM,63.5,61.0,91,29.80,5.0,SSW,12.7,-,N/A,,Overcast,210,2013-10-15 20:55:00
4:15 PM,63.9,61.5,92,29.80,5.0,SSW,9.2,-,N/A,,Overcast,210,2013-10-15 21:15:00
4:35 PM,64.4,61.7,91,29.79,5.0,South,8.1,-,N/A,,Overcast,190,2013-10-15 21:35:00
4:55 PM,63.9,61.3,91,29.79,5.0,SSW,10.4,-,N/A,,Overcast,200,2013-10-15 21:55:00
5:15 PM,64.0,61.5,91,29.79,5.0,SSW,9.2,-,N/A,,Overcast,200,2013-10-15 22:15:00
5:35 PM,63.9,61.3,91,29.79,5.0,SSW,9.2,-,N/A,,Scattered Clouds,210,2013-10-15 22:35:00
5:55 PM,63.0,60.8,93,29.79,5.0,SSW,9.2,-,N/A,,Clear,210,2013-10-15 22:55:00
6:15 PM,63.0,61.2,94,29.79,5.0,SSW,9.2,-,N/A,,Mostly Cloudy,210,2013-10-15 23:15:00
6:35 PM,62.8,60.8,93,29.79,7.0,SSW,8.1,-,N/A,,Overcast,200,2013-10-15 23:35:00
6:55 PM,62.1,60.3,94,29.80,7.0,SSW,6.9,-,N/A,,Mostly Cloudy,210,2013-10-15 23:55:00
7:15 PM,62.6,60.1,91,29.80,10.0,SW,8.1,-,N/A,,Mostly Cloudy,220,2013-10-16 00:15:00
7:55 PM,62.2,55.0,77,29.82,10.0,West,12.7,19.6,N/A,,Overcast,270,2013-10-16 00:55:00
8:15 PM,61.3,52.0,71,29.83,10.0,West,10.4,17.3,N/A,,Overcast,270,2013-10-16 01:15:00
8:35 PM,58.6,48.6,69,29.84,10.0,NW,17.3,24.2,N/A,,Mostly Cloudy,310,2013-10-16 01:35:00
8:55 PM,56.7,46.6,69,29.85,10.0,WNW,13.8,-,N/A,,Scattered Clouds,290,2013-10-16 01:55:00
9:15 PM,55.2,45.9,71,29.86,10.0,WNW,10.4,-,N/A,,Scattered Clouds,290,2013-10-16 02:15:00
9:35 PM,54.0,45.5,73,29.86,10.0,West,6.9,-,N/A,,Scattered Clouds,280,2013-10-16 02:35:00
9:55 PM,53.1,45.3,75,29.87,10.0,West,8.1,-,N/A,,Scattered Clouds,270,2013-10-16 02:55:00
10:15 PM,52.7,45.0,75,29.87,10.0,West,6.9,-,N/A,,Clear,270,2013-10-16 03:15:00
10:35 PM,51.8,44.6,76,29.87,10.0,West,6.9,-,N/A,,Clear,260,2013-10-16 03:35:00
10:55 PM,50.5,44.2,79,29.88,10.0,West,6.9,-,N/A,,Clear,270,2013-10-16 03:55:00
11:15 PM,50.4,44.1,79,29.88,10.0,West,6.9,-,N/A,,Clear,270,2013-10-16 04:15:00
11:35 PM,49.5,43.7,81,29.88,10.0,West,6.9,-,N/A,,Clear,260,2013-10-16 04:35:00
11:55 PM,48.6,43.0,81,29.88,10.0,West,8.1,-,N/A,,Clear,260,2013-10-16 04:55:00